Vertical_Velocity
-0 -0 1 -1 -1 -0 -0 0 1 -1 0 0 -0 -1 -0 -1 -0 -0 -1 -2 -0 -0 -1 -0 -2 -3 -1 -1 3 2 -2 -2 -1 -2 -3 -3 2 -1 2 1 -1 3 -1 1 -2 -2 -1
1 1 0 -1 -0 -0 -1 -1 0 -1 -0 -1 -0 -0 1 1 -0 1 0 -0 -1 -1 2 -0 1 -2 -2 3 0 -2 0 -0 -3 -4 -0 -2 1 -0 -1 -0 2 3 -0 -5 -3 -3 -2
0 -1 -1 -1 -0 -1 -0 -0 0 -1 -0 -1 -0 -1 -1 -1 -0 -2 -1 1 -1 -0 -0 1 0 1 -1 -5 -2 -2 -1 -3 -0 -2 -1 -3 -1 -1 3 0 3 -2 1 -1 0 1 -1
1 -0 -2 -1 -2 -1 -0 -0 -2 -0 -1 -1 -0 -1 -1 -2 -2 -1 -0 -2 0 -1 -3 0 2 1 -2 2 -0 -0 -0 -3 -2 -3 -1 -2 -1 -1 1 0 -0 2 3 -0 0 1 2
-2 -1 -1 -1 -1 -2 -2 -1 -2 -1 -1 -0 -1 -1 -1 -1 -0 -1 -2 -2 -1 -1 -1 -2 1 0 2 1 1 0 0 1 0 -1 -1 -2 -2 2 6 2 1 2 -0 -0 -4 -1 -0
-1 -2 -0 -1 -1 0 -0 -1 -1 1 -0 -1 -2 -2 -3 -3 -3 -0 1 -2 -1 -1 -2 0 -1 2 2 4 -0 1 1 1 1 4 2 -1 0 1 2 3 -2 -0 -1 -2 0 0 3
-1 -1 1 -1 -2 -2 -1 -2 -1 -2 -2 -3 -3 -2 -1 -0 -1 -2 -1 -6 -3 -2 -0 -9 9 4 -1 -3 -2 -1 -2 -1 -1 3 2 0 3 -2 -3 -0 1 1 2 1 -5 2 1
-0 -1 -1 -2 -2 -1 -1 0 -1 -1 1 -1 -0 -2 -1 -3 -2 -1 -3 -3 2 3 -13 1 3 -0 2 -2 5 4 -1 3 2 -1 3 3 -2 -0 -0 -0 1 1 1 -5 -3 0 5
1 0 -1 -2 -1 -1 -2 -2 -2 -1 -1 -2 -2 -2 -1 2 -2 -0 -3 -1 -0 -2 3 3 -2 2 4 2 -3 5 -2 -0 1 2 -0 -0 -1 -0 0 0 3 -1 1 -1 1 -2 -1
-3 -2 -1 -1 -1 -2 -1 -1 -1 -3 -3 -2 -2 -4 -4 1 -0 -0 -2 -1 0 0 2 -2 2 4 -2 1 2 8 1 3 2 -1 1 -1 -1 0 1 0 3 2 -0 1 0 -1 -2
-1 -1 -2 -2 -1 -1 -0 -0 -2 -3 -1 -2 -2 -1 -1 -4 -2 -4 -2 -0 2 0 -3 -4 4 2 3 3 1 1 -1 1 -1 -0 -2 -14 1 1 2 -6 1 -6 0 1 1 1 3
-1 -1 -2 -1 -2 -2 -2 -2 -2 -2 -2 0 -1 -2 2 -2 -1 2 0 -2 -1 -2 -15 4 1 0 3 1 1 -0 0 -1 2 2 1 -7 1 0 -2 0 -0 1 0 1 2 0 -2
-3 -1 -0 -1 -2 -2 -1 -2 -1 -2 -3 -1 -2 -1 -1 -1 -1 1 1 4 -1 -0 -12 3 2 1 0 1 2 1 0 2 -1 -3 -0 -2 -1 1 1 2 2 3 2 -4 -5 -3 -7
1 -2 -2 -2 -1 -1 -1 -2 -1 -1 -1 -1 -1 -2 -2 -2 -3 -4 -2 4 4 -5 -1 0 -0 -1 1 1 -2 1 -0 0 1 4 0 -0 -9 -1 0 -0 -0 -2 -1 -5 -1 -1 -4
-3 -1 -2 -2 -3 -2 -1 -0 -1 -1 -4 -3 -3 -2 -2 -0 -2 4 -3 1 -6 1 3 1 -8 4 -2 2 1 1 -0 -1 -1 -3 -4 2 -0 -0 1 0 -1 0 1 -2 -0 -1 -3
0 0 -0 -3 -2 -3 1 -1 -8 1 -4 -2 1 -3 -3 -1 1 -1 3 -2 2 1 -0 -0 2 5 2 -2 2 2 1 -0 1 1 1 -4 -2 0 2 1 1 1 2 -3 -2 -2 -0
-1 -1 -1 -2 -2 -2 -6 -2 -0 -3 -4 -2 -2 5 -1 -1 -1 -1 0 -1 -1 -1 2 4 1 -1 1 3 5 -1 -4 -3 -1 1 -0 1 2 -1 0 -1 -3 1 0 1 -1 0 -3
-3 -1 -0 -1 0 -3 1 -3 -6 -4 -5 2 -2 1 -0 -5 5 0 1 2 1 -1 -2 -2 4 3 2 0 0 1 0 4 1 3 0 1 2 -0 -4 -0 -0 0 -1 -3 -3 -5 -2
-2 -2 -1 -1 -0 -7 -4 -4 -2 1 -6 -6 -1 -2 -7 -5 2 0 -1 -1 2 -1 -0 -1 -0 -0 -0 0 0 2 -0 3 -2 0 3 2 -4 -1 -9 1 -1 -0 -2 -0 1 -1 -2
1 2 -5 -1 1 -4 -6 -6 -1 -4 -7 3 0 -1 -1 1 -4 2 0 -3 -1 0 -3 -0 0 2 -0 1 -1 -3 -2 1 -1 1 -2 2 0 1 -4 -5 0 -0 -1 -0 1 1 -2
1 -2 -1 -5 -3 1 -5 -3 -2 -9 1 -5 -4 3 1 -2 3 -1 3 2 -0 -2 1 -1 -0 1 2 1 -2 -2 -2 -4 -6 2 -0 3 1 3 -2 -0 1 2 0 -1 4 -5 4
-0 -0 -1 -5 -2 -1 -4 -3 -2 -6 -4 -14 0 -1 -13 -4 -1 2 -2 -3 1 -5 5 -5 4 -1 1 3 5 0 6 2 1 -8 1 -1 -4 1 -4 -1 1 1 -1 0 -0 -2 0
0 -2 -1 -1 -2 -2 -3 -2 -6 -8 -5 -4 -7 -1 11 -5 -1 2 1 1 -0 2 -11 4 6 4 0 -0 2 0 2 -1 1 6 -0 3 2 0 -3 0 -1 -2 -7 -2 -2 -0 2
-0 -1 -4 -4 -3 1 1 1 -2 -5 -5 -6 1 -0 1 -4 1 4 1 5 0 -1 6 -7 0 11 -1 3 -9 -3 5 3 8 -5 3 1 2 2 -1 -3 -1 -20 -0 -2 -4 3 -1
-3 -6 1 -1 -3 -2 -1 -2 -1 -3 -2 -5 -0 -4 2 -2 5 -6 -4 4 -2 -4 3 8 -6 7 -6 -5 2 -1 -2 5 -5 -3 1 2 2 -0 2 -1 -10 -13 -1 2 -5 8 4
1 2 -4 -3 -2 -1 0 -3 -4 -1 -2 -1 -2 0 3 2 -0 14 4 3 3 -1 -6 -5 -4 -4 -2 2 3 1 -0 3 -4 -0 -0 3 1 4 2 1 1 8 -3 3 -1 2 3
-2 -3 1 -0 -1 -1 -0 -4 -4 1 0 4 -2 5 5 5 -15 7 -0 6 2 1 2 -3 -1 -5 11 0 2 2 -4 3 3 1 -1 -0 1 -2 -1 0 -0 4 1 2 0 15 1
-5 3 1 -2 -6 -2 -3 -3 -3 -3 -6 11 -7 3 13 6 -16 4 -0 1 -3 3 4 -10 -10 4 1 2 3 1 -0 3 1 6 5 3 3 1 1 4 2 1 -11 -12 9 -7 4
1 -1 -2 -5 -2 -3 -4 -1 2 1 -0 10 -7 2 11 6 -22 -0 7 1 3 -6 22 3 -6 2 1 1 -1 -1 -1 -0 1 -3 -6 -1 9 6 9 -2 -2 8 8 -2 9 10 4
Height
1548 1547 1547 1546 1545 1544 1542 1541 1539 1537 1535 1533 1531 1529 1527 1524 1522 1519 1516 1514 1512 1511 1509 1508 1507 1506 1507 1507 1506 1503 1503 1503 1503 1502 1501 1501 1500 1500 1497 1496 1495 1494 1490 1489 1488 1487 1486
1549 1549 1548 1547 1546 1544 1543 1541 1539 1538 1535 1533 1531 1529 1527 1524 1521 1518 1515 1513 1511 1509 1507 1506 1505 1505 1505 1507 1502 1502 1503 1502 1501 1502 1501 1501 1501 1500 1499 1497 1496 1492 1491 1486 1483 1483 1483
1550 1549 1549 1548 1546 1545 1543 1542 1540 1538 1535 1533 1531 1529 1526 1523 1520 1517 1514 1512 1509 1506 1504 1503 1503 1503 1502 1502 1500 1500 1501 1501 1501 1500 1500 1500 1500 1500 1498 1494 1493 1492 1491 1480 1477 1479 1481
1551 1550 1549 1548 1546 1545 1543 1542 1540 1538 1535 1533 1530 1528 1525 1523 1520 1516 1513 1510 1507 1504 1502 1502 1501 1501 1499 1497 1497 1497 1498 1498 1499 1498 1499 1498 1498 1498 1498 1494 1490 1490 1486 1488 1475 1475 1478
1551 1550 1549 1548 1546 1544 1543 1541 1539 1536 1534 1532 1529 1527 1524 1521 1518 1515 1512 1508 1505 1502 1500 1501 1501 1501 1498 1495 1495 1496 1497 1498 1497 1496 1496 1497 1497 1497 1495 1494 1489 1484 1493 1484 1477 1471 1474
1551 1550 1549 1547 1546 1544 1542 1540 1538 1536 1533 1531 1528 1525 1523 1520 1517 1514 1510 1507 1503 1500 1500 1500 1499 1503 1498 1496 1494 1494 1496 1497 1497 1497 1496 1496 1496 1494 1492 1491 1500 1490 1489 1481 1483 1472 1473
1552 1550 1549 1547 1545 1544 1542 1539 1536 1534 1531 1529 1526 1524 1521 1518 1515 1512 1510 1505 1506 1502 1498 1496 1495 1494 1493 1492 1493 1493 1494 1495 1497 1498 1493 1493 1495 1493 1479 1478 1480 1484 1487 1485 1474 1471 1474
1552 1550 1548 1547 1545 1542 1540 1537 1535 1532 1529 1527 1524 1522 1519 1517 1514 1512 1510 1509 1511 1511 1498 1488 1487 1489 1490 1491 1491 1491 1494 1496 1493 1494 1491 1493 1492 1477 1476 1479 1482 1483 1484 1480 1467 1466 1472
1551 1549 1548 1545 1543 1541 1539 1536 1532 1529 1527 1523 1521 1519 1517 1515 1513 1512 1510 1510 1508 1507 1505 1488 1486 1487 1487 1487 1487 1487 1490 1491 1490 1489 1487 1492 1479 1479 1479 1479 1480 1477 1478 1471 1475 1470 1462
1551 1549 1547 1545 1542 1539 1536 1533 1530 1527 1524 1521 1518 1516 1514 1513 1513 1510 1510 1510 1508 1505 1504 1484 1485 1486 1487 1487 1487 1485 1487 1489 1487 1485 1482 1481 1474 1475 1480 1479 1475 1479 1468 1469 1472 1478 1485
1550 1548 1545 1543 1540 1537 1534 1531 1527 1524 1522 1519 1515 1513 1511 1509 1511 1511 1511 1509 1507 1507 1518 1480 1484 1485 1485 1487 1486 1485 1486 1487 1485 1480 1484 1479 1475 1478 1479 1473 1467 1471 1469 1470 1469 1476 1476
1549 1547 1544 1542 1539 1536 1533 1530 1527 1523 1520 1516 1513 1509 1508 1508 1508 1509 1509 1508 1508 1512 1515 1480 1483 1484 1485 1483 1483 1485 1486 1487 1485 1483 1478 1473 1471 1474 1471 1467 1468 1470 1470 1464 1466 1471 1489
1548 1547 1545 1542 1539 1536 1533 1530 1526 1522 1518 1514 1511 1508 1506 1506 1508 1507 1508 1509 1513 1516 1480 1482 1481 1483 1482 1478 1478 1480 1482 1485 1486 1491 1480 1465 1467 1466 1468 1472 1469 1473 1475 1491 1488 1490 1479
1549 1547 1545 1542 1539 1536 1532 1528 1525 1521 1517 1513 1510 1507 1505 1505 1506 1507 1508 1511 1517 1495 1487 1479 1482 1482 1484 1475 1473 1474 1477 1479 1472 1474 1480 1485 1483 1465 1465 1465 1465 1468 1469 1493 1482 1489 1476
1549 1547 1544 1542 1539 1536 1531 1528 1524 1521 1516 1513 1509 1507 1507 1506 1505 1506 1508 1513 1505 1494 1494 1492 1486 1482 1479 1472 1477 1475 1476 1475 1465 1463 1479 1473 1465 1463 1463 1461 1465 1467 1475 1465 1473 1468 1491
1549 1547 1544 1542 1539 1536 1532 1528 1524 1520 1515 1512 1510 1508 1509 1507 1506 1506 1509 1504 1496 1498 1498 1496 1494 1482 1483 1477 1479 1475 1472 1464 1465 1467 1467 1468 1474 1461 1467 1466 1464 1467 1467 1476 1478 1484 1471
1549 1548 1546 1542 1538 1536 1533 1528 1523 1520 1516 1512 1509 1510 1510 1508 1508 1508 1509 1502 1500 1501 1501 1499 1493 1489 1486 1484 1480 1477 1471 1468 1470 1469 1470 1469 1469 1467 1465 1467 1462 1468 1470 1469 1467 1467 1476
1550 1548 1546 1543 1539 1535 1532 1529 1524 1520 1515 1513 1511 1512 1510 1509 1511 1506 1505 1506 1507 1501 1501 1499 1495 1492 1490 1488 1483 1480 1475 1473 1476 1473 1470 1470 1470 1472 1460 1455 1455 1456 1456 1460 1476 1466 1463
1549 1548 1546 1543 1539 1536 1532 1529 1526 1521 1517 1514 1515 1513 1512 1511 1509 1506 1504 1506 1506 1504 1503 1501 1496 1495 1493 1492 1491 1476 1474 1478 1478 1476 1475 1474 1470 1476 1464 1461 1459 1459 1455 1455 1456 1458 1464
1549 1547 1545 1545 1541 1538 1533 1530 1526 1522 1521 1519 1519 1516 1513 1512 1514 1514 1512 1507 1506 1503 1503 1502 1500 1498 1494 1490 1488 1479 1476 1478 1478 1477 1477 1476 1470 1468 1470 1460 1457 1460 1456 1455 1457 1471 1461
1550 1548 1546 1544 1543 1539 1535 1531 1526 1524 1522 1519 1522 1522 1522 1517 1513 1517 1516 1511 1506 1505 1502 1501 1496 1498 1500 1498 1491 1484 1479 1481 1480 1477 1476 1476 1472 1467 1459 1457 1457 1456 1456 1456 1458 1454 1461
1551 1549 1547 1545 1543 1540 1536 1532 1529 1527 1524 1523 1528 1528 1524 1520 1517 1516 1514 1508 1509 1508 1510 1502 1500 1499 1501 1501 1498 1494 1493 1490 1485 1480 1476 1473 1472 1466 1463 1457 1456 1454 1448 1449 1448 1446 1447
1550 1548 1548 1545 1544 1540 1538 1534 1531 1530 1527 1528 1533 1531 1529 1522 1516 1518 1515 1515 1514 1515 1511 1506 1506 1505 1503 1499 1497 1496 1495 1493 1489 1487 1485 1482 1475 1471 1464 1455 1458 1454 1440 1438 1440 1441 1442
1550 1548 1547 1546 1545 1542 1540 1537 1535 1533 1533 1534 1535 1533 1531 1524 1521 1520 1518 1518 1516 1515 1513 1511 1508 1506 1502 1496 1492 1487 1482 1477 1476 1474 1479 1477 1476 1473 1470 1464 1474 1437 1433 1433 1444 1447 1443
1550 1549 1549 1547 1545 1544 1541 1540 1538 1537 1536 1535 1535 1536 1534 1529 1527 1523 1520 1517 1515 1512 1508 1505 1503 1502 1500 1498 1490 1478 1469 1462 1459 1458 1463 1469 1477 1476 1469 1464 1447 1437 1438 1436 1435 1455 1453
1550 1548 1548 1547 1546 1544 1542 1540 1539 1539 1537 1536 1535 1535 1534 1532 1525 1524 1522 1519 1515 1511 1509 1506 1503 1501 1500 1497 1490 1483 1476 1467 1457 1454 1454 1453 1464 1473 1467 1465 1448 1456 1445 1434 1430 1457 1458
1550 1548 1547 1545 1544 1543 1540 1539 1539 1539 1537 1536 1535 1534 1533 1530 1526 1524 1523 1520 1517 1513 1510 1506 1502 1498 1496 1495 1488 1482 1478 1468 1470 1464 1466 1462 1464 1464 1467 1466 1448 1459 1446 1435 1439 1469 1464
1548 1547 1545 1544 1543 1542 1539 1538 1537 1536 1536 1535 1533 1532 1532 1527 1521 1518 1516 1517 1514 1512 1509 1506 1504 1495 1495 1495 1487 1485 1484 1481 1478 1482 1476 1471 1472 1459 1461 1463 1462 1461 1454 1464 1474 1467 1463
1546 1544 1543 1542 1541 1540 1538 1537 1535 1534 1534 1532 1529 1529 1529 1526 1518 1514 1511 1510 1509 1507 1507 1503 1504 1500 1499 1494 1488 1488 1487 1485 1484 1486 1476 1480 1475 1474 1475 1468 1462 1466 1469 1468 1467 1466 1464